Wind_Speed
110 108 104 99 96 95 95 95 92 90 90 91 91 88 86 83 80 80 79 77 77 76 71 68 67 65 66 69 68 65 62 60 59 58 58 58 58 56 55 54 52 51 50 48 46 45 45 45 44 43 43 42 41 40 39 38 39 39 39 40 42 42 43 45 45 44 44 44 44 45 47 47 48 49 50 51 50 49 47 46 45 46 47 49 50 51
113 111 105 100 97 99 100 100 97 96 96 94 92 90 87 85 84 84 82 77 78 78 74 71 69 66 66 69 69 66 64 61 60 61 62 62 60 58 58 57 56 54 52 51 49 48 47 47 47 46 46 46 45 43 42 41 41 40 39 39 39 38 39 41 42 43 44 43 43 44 45 46 47 47 48 48 47 45 43 42 42 44 46 48 49 50
115 112 107 102 101 103 103 102 100 100 100 96 93 91 88 87 88 88 84 79 78 80 78 75 71 68 68 70 70 68 65 63 62 65 66 64 62 60 60 61 59 57 56 55 53 51 50 50 49 49 49 49 48 47 46 45 43 42 41 40 39 38 38 39 40 40 40 40 40 41 42 42 43 43 43 43 42 41 40 40 41 42 44 45 46 47
116 113 108 105 104 105 104 102 102 102 101 97 95 93 90 90 91 90 86 82 81 82 82 79 74 71 69 70 70 69 67 65 65 67 67 65 63 61 62 63 62 62 61 60 57 55 54 52 52 51 52 51 51 51 50 48 46 45 44 43 42 41 41 40 40 39 39 39 40 40 41 42 42 42 42 42 41 41 40 41 41 43 44 45 46 46
117 114 111 109 107 106 105 104 104 104 102 98 97 96 93 93 94 92 89 85 84 85 84 82 79 74 70 70 70 71 70 67 67 67 66 66 65 65 65 65 65 66 66 64 62 60 57 56 55 54 54 54 54 54 53 51 50 49 49 47 46 45 44 44 43 42 41 42 43 42 43 44 44 44 44 44 43 42 42 42 43 43 45 46 46 47
119 117 116 113 111 109 107 106 105 105 104 102 100 98 97 97 96 95 93 88 86 88 87 86 82 75 72 72 70 72 72 68 67 68 67 66 67 67 67 67 67 68 69 68 67 65 61 59 58 57 57 56 56 57 56 54 53 53 52 51 49 48 48 47 47 46 45 45 46 45 46 46 46 46 46 46 44 43 44 44 44 45 46 47 48 48
121 120 119 117 114 112 109 108 107 106 106 105 103 101 99 99 98 97 95 92 90 90 90 88 84 77 74 74 71 72 73 69 66 67 67 67 68 69 69 70 70 70 71 71 70 68 66 64 62 60 60 59 59 59 58 57 56 55 55 53 52 51 50 50 49 49 48 48 48 48 48 48 49 49 49 48 47 46 47 47 48 48 48 49 50 50
122 122 121 119 117 115 112 110 108 108 107 106 104 102 101 100 100 99 98 96 92 93 93 88 85 80 75 74 73 73 74 71 67 67 69 69 70 70 71 72 73 74 74 73 71 71 69 67 66 64 63 62 62 62 61 60 59 58 57 56 55 55 54 53 52 52 51 50 50 50 50 50 51 52 52 51 50 50 51 51 52 52 52 52 53 53
122 122 122 121 119 117 115 112 110 109 109 108 105 104 103 103 103 102 100 98 96 96 94 88 86 82 74 73 76 75 74 73 69 69 70 70 70 72 73 74 75 76 76 75 73 73 72 70 69 67 66 65 65 64 63 62 61 60 60 60 59 58 57 56 55 55 54 53 53 52 53 53 54 55 54 53 53 54 54 54 55 55 55 55 55 56
125 124 124 124 122 120 118 115 113 112 112 111 109 108 106 105 105 104 102 101 100 100 96 87 86 85 77 74 78 77 74 74 73 71 69 70 73 75 75 75 76 77 77 76 76 75 74 72 71 70 69 68 68 67 65 64 64 64 64 63 62 61 61 60 59 58 57 57 56 55 56 57 57 58 57 56 56 57 57 57 57 58 58 57 58 58
129 128 127 127 125 123 122 121 118 116 115 115 113 111 108 107 107 106 105 103 105 104 96 87 88 90 83 77 78 78 75 74 75 72 70 72 77 77 77 77 77 78 79 78 77 77 76 74 73 72 71 70 69 68 67 67 67 67 66 65 65 65 64 63 62 61 60 60 59 59 59 60 61 61 60 60 60 60 60 60 60 60 60 60 60 60
132 130 130 129 127 125 125 126 123 119 118 117 115 112 110 109 109 109 108 108 109 105 94 88 90 95 89 78 77 78 74 73 75 76 75 76 78 79 78 79 80 80 80 79 79 78 77 76 76 74 73 72 70 69 69 70 70 70 69 68 67 67 67 66 64 64 63 62 62 62 62 62 63 64 64 64 64 63 63 64 64 63 63 63 63 63
133 132 131 130 128 127 128 129 127 123 119 118 116 113 112 111 111 112 111 110 110 104 94 90 94 100 94 81 78 78 76 75 76 80 81 79 79 80 81 82 82 82 82 82 81 79 78 78 77 76 75 74 72 71 72 72 73 72 71 71 70 70 70 68 67 66 66 66 65 66 65 65 65 66 66 67 67 67 67 67 67 66 65 65 65 65
134 134 133 132 130 129 129 128 127 124 120 119 117 115 114 113 113 113 112 111 111 105 98 96 100 105 98 84 79 79 78 79 79 82 84 83 82 83 84 85 85 85 84 83 82 81 80 80 79 79 78 76 75 74 74 75 75 74 74 73 72 73 73 71 70 70 69 69 69 69 68 68 68 68 68 69 69 70 70 70 69 69 68 68 68 68
138 137 135 133 130 128 127 126 125 124 123 124 122 120 118 117 116 115 114 114 113 108 104 102 105 107 98 85 82 81 81 83 83 85 87 87 87 87 87 88 88 88 86 85 84 84 83 83 82 81 80 79 78 77 77 78 77 76 75 75 74 74 74 74 73 73 73 73 73 72 72 72 72 71 71 71 72 73 73 73 72 72 71 71 71 71
142 140 137 133 130 129 128 127 126 126 127 129 129 125 121 119 118 118 116 115 115 113 108 106 108 106 97 89 86 84 84 85 85 87 89 90 91 90 89 90 90 90 89 87 87 86 86 85 85 84 83 82 81 80 80 80 79 78 77 77 76 77 77 76 76 76 76 76 76 76 75 75 75 75 74 74 75 75 75 75 75 75 75 75 75 74
144 141 139 136 133 131 130 129 129 129 130 133 133 128 123 121 121 121 119 117 117 117 112 109 109 107 99 93 89 86 86 87 88 90 92 93 94 93 92 92 93 92 91 90 90 89 88 87 87 87 86 86 85 84 84 82 81 80 80 79 80 80 80 80 79 79 79 79 79 79 79 78 78 78 78 78 78 78 77 77 77 78 78 78 78 78
146 145 142 139 136 134 132 132 132 131 132 134 134 131 127 126 126 124 122 121 121 120 117 112 110 108 102 96 91 90 90 89 91 94 95 95 95 96 95 95 95 95 94 93 93 91 90 90 90 90 89 89 88 88 87 85 84 83 84 83 84 84 84 83 82 82 82 82 82 82 82 81 81 81 81 81 80 80 79 79 79 80 80 81 81 81
149 147 145 141 138 137 136 135 134 133 133 134 133 132 131 131 129 127 125 123 123 123 121 116 111 108 105 98 94 94 94 95 97 98 97 97 97 98 99 98 97 96 96 96 96 94 93 93 93 92 92 91 91 90 89 88 88 87 88 87 87 87 86 85 85 85 85 85 84 84 85 84 84 84 83 83 83 82 82 82 82 82 83 83 83 83
148 147 146 143 140 139 138 137 135 133 133 133 133 132 132 133 132 130 128 126 125 125 125 121 115 110 105 101 99 99 98 100 101 100 100 101 99 99 101 102 100 99 99 99 99 98 96 96 95 95 95 94 93 92 91 91 91 91 91 91 90 90 89 88 88 88 88 88 87 87 88 87 87 87 86 86 86 85 85 85 85 85 85 85 85 85
148 147 145 144 142 140 138 137 135 134 134 134 134 133 132 133 134 134 132 130 129 129 128 126 120 112 105 104 104 103 102 104 104 103 104 104 102 101 102 104 104 103 102 101 101 100 99 98 98 97 97 97 96 94 93 93 93 93 93 93 93 92 92 91 91 90 90 91 90 90 91 91 90 90 89 89 88 88 88 87 87 87 88 88 88 88
147 146 145 144 142 140 138 137 136 137 137 137 136 134 133 134 136 137 135 133 132 132 130 129 126 117 109 108 109 107 107 108 108 106 107 107 106 104 104 106 107 106 105 104 103 102 101 101 100 100 100 100 98 97 96 96 95 95 95 95 95 95 94 94 93 93 93 93 93 93 94 94 93 92 92 91 91 91 90 90 90 90 90 90 90 91
146 145 145 144 142 141 140 140 139 140 140 139 137 136 135 136 137 137 135 134 135 136 135 135 131 123 115 114 113 111 111 112 111 109 110 110 110 108 107 108 109 109 108 107 106 105 104 103 103 103 103 103 101 100 99 99 98 97 97 97 97 97 97 97 96 96 96 96 96 96 96 96 96 95 94 94 93 93 93 93 93 92 92 92 93 94
144 144 144 145 143 142 142 142 142 142 142 140 139 138 137 137 137 137 137 137 139 140 140 140 136 129 123 122 120 116 115 115 114 112 112 114 113 112 111 110 110 111 110 109 109 108 108 107 106 106 106 105 104 103 102 102 101 100 99 99 99 99 99 99 99 98 98 98 98 98 98 98 98 98 97 97 96 96 96 95 95 95 95 95 96 97
141 142 143 144 144 144 144 144 143 143 143 141 140 139 138 138 139 139 139 140 141 142 143 143 141 135 130 129 125 120 118 117 117 116 116 116 116 115 114 112 112 113 113 112 111 111 111 111 110 110 109 109 108 107 106 105 104 103 103 102 102 102 102 102 101 101 101 100 100 101 101 101 101 101 100 100 99 99 98 98 98 98 98 98 99 99
140 141 142 142 143 144 144 143 142 142 143 142 141 141 141 141 141 141 142 142 142 143 143 143 143 140 136 134 129 123 120 120 120 120 119 118 118 118 117 116 115 115 115 115 115 114 114 114 113 113 113 113 112 111 110 109 108 107 106 106 105 105 104 104 103 103 103 103 102 103 103 103 103 103 102 102 101 101 101 101 101 101 101 102 102 102
138 141 142 142 142 142 142 143 143 143 145 145 145 144 144 144 144 144 144 144 144 145 145 145 146 144 140 136 132 127 125 124 123 123 122 121 120 120 120 119 118 118 118 118 118 118 118 117 116 116 117 117 116 115 114 113 112 111 110 109 109 108 107 106 106 105 105 105 105 105 105 105 105 105 104 104 104 104 104 104 104 104 104 105 105 105
137 138 139 139 140 140 141 142 143 144 146 147 147 147 147 147 147 147 146 145 145 146 147 147 149 147 142 137 134 132 131 130 128 126 124 123 123 123 123 123 123 122 122 122 121 121 121 120 120 120 120 120 119 119 118 116 115 114 113 113 112 111 110 110 109 108 108 108 107 107 107 107 107 107 107 107 107 107 107 107 107 107 107 107 108 108
136 136 135 136 137 138 139 140 141 143 145 147 147 147 148 149 149 148 148 146 146 146 148 149 149 148 143 137 133 133 134 135 134 131 128 126 125 126 126 126 126 126 127 126 125 125 124 123 122 122 122 122 122 122 121 120 118 117 116 116 115 114 113 113 112 112 112 111 111 111 110 110 109 109 109 110 110 110 110 110 110 110 111 111 111 111
133 133 133 134 134 135 136 138 139 140 142 144 146 147 148 149 150 150 149 148 147 148 149 149 149 148 145 138 133 131 133 135 137 137 135 133 130 129 128 128 128 129 130 130 129 128 127 126 125 124 124 124 125 125 125 123 122 120 119 118 118 117 116 115 115 115 114 114 114 114 114 113 113 113 113 113 113 113 113 113 114 113 113 113 113 113
130 131 131 132 133 132 133 135 137 138 139 141 143 145 147 149 150 150 149 148 147 148 149 150 150 149 147 142 136 131 131 135 138 138 137 137 137 135 132 131 131 132 133 133 132 131 130 129 128 128 127 127 128 128 128 127 125 124 122 121 121 121 120 119 119 118 117 117 117 117 117 117 117 117 117 117 117 117 117 117 116 116 116 116 115 115
128 130 130 131 132 131 131 132 134 136 138 140 141 144 146 147 148 148 148 148 147 148 150 151 151 150 148 146 142 137 133 135 137 138 137 137 138 138 138 137 137 137 137 136 135 134 133 133 132 132 131 131 131 131 130 129 128 128 127 126 125 125 124 123 123 122 121 121 121 120 120 120 120 120 120 121 121 120 120 120 119 119 119 118 118 117
127 129 130 131 132 131 131 132 134 137 139 139 139 139 141 143 145 146 147 147 148 149 150 150 150 149 149 149 147 143 138 137 138 139 139 139 138 138 139 140 141 142 142 140 139 138 137 136 135 134 134 134 134 134 133 131 130 130 131 131 130 129 128 127 126 125 125 124 124 124 123 123 123 122 123 123 123 123 122 122 122 122 122 121 120 118
122 124 127 129 130 129 129 131 135 138 139 137 134 133 134 138 141 143 144 145 146 147 148 149 149 150 151 151 150 148 143 141 140 141 143 144 143 140 139 140 142 144 143 142 142 142 141 139 137 136 135 135 136 136 135 133 132 131 132 133 133 133 132 130 129 128 128 128 127 127 127 126 126 126 126 126 126 125 125 124 124 124 123 122 120 118
116 118 120 123 126 126 126 128 132 134 134 132 129 128 130 133 135 138 140 141 142 144 146 148 150 151 152 153 152 150 147 145 144 144 145 147 147 145 142 141 143 144 143 142 142 143 143 143 141 140 138 137 138 138 137 135 133 132 132 133 135 136 136 134 133 132 131 131 130 130 130 129 129 128 129 128 128 127 127 126 125 124 123 122 121 119
111 113 115 118 120 122 124 126 128 130 128 126 125 125 127 128 129 132 135 137 140 143 146 148 150 150 151 152 152 152 151 150 148 147 146 147 150 151 148 145 144 144 145 145 144 143 143 144 144 143 142 141 140 140 139 137 135 134 133 134 135 136 137 137 136 134 133 133 133 133 132 132 130 130 130 130 129 128 128 127 126 125 124 123 122 120
106 107 110 113 115 117 119 122 125 126 124 121 120 120 122 124 127 131 135 137 138 141 144 147 148 148 149 150 152 153 154 155 153 150 148 148 150 153 152 149 147 146 147 147 146 146 145 145 144 144 143 143 142 141 141 140 139 138 137 137 138 138 138 138 138 136 134 133 133 133 133 132 131 130 129 129 129 129 129 129 128 127 125 124 122 120
101 101 103 106 109 112 115 118 121 122 119 116 116 119 122 125 128 132 136 138 137 137 139 141 144 146 148 149 151 153 155 157 155 152 150 150 151 152 152 150 149 148 148 147 147 147 147 147 147 146 146 145 145 144 143 142 141 140 140 141 142 142 142 141 141 140 138 136 135 134 134 134 132 131 131 131 131 131 132 132 131 129 128 126 123 121
93 93 95 99 102 106 109 113 116 117 115 113 115 120 124 126 129 133 137 137 134 132 134 138 141 144 146 149 150 153 155 156 155 153 151 151 151 151 150 150 150 149 148 148 148 148 149 149 149 149 149 149 148 148 147 146 144 142 142 143 144 144 144 144 143 143 143 142 141 139 139 138 137 136 134 133 133 133 134 135 134 132 130 128 125 122
84 84 88 92 95 99 103 107 110 111 110 110 113 119 122 125 129 134 136 134 131 131 133 137 141 144 145 147 148 149 151 153 153 152 151 150 150 149 149 150 150 150 150 150 149 149 149 150 150 151 151 151 151 150 149 149 147 146 145 145 146 146 146 146 146 145 145 145 145 144 143 143 142 141 139 137 135 135 135 136 136 134 131 129 127 124
77 77 81 84 87 91 96 100 103 103 103 104 108 113 119 124 128 131 132 131 131 132 134 137 140 143 144 144 145 145 147 149 149 149 148 148 148 148 148 149 149 149 150 151 151 150 150 150 151 151 152 152 152 151 151 150 149 149 148 148 148 148 149 149 148 147 146 146 146 146 146 146 145 144 143 141 138 137 136 136 136 135 132 130 129 127
72 74 77 78 80 83 88 94 97 97 94 93 99 108 116 122 125 127 129 131 132 133 134 136 138 140 141 141 141 142 143 144 145 146 146 146 146 146 146 146 147 148 149 150 151 151 151 151 152 152 152 153 153 152 152 151 151 151 151 150 150 150 150 150 150 149 149 148 147 147 147 147 147 147 145 144 142 140 138 138 137 136 135 133 131 130
73 75 76 75 76 78 83 89 92 89 84 84 94 105 113 116 119 123 126 128 129 130 132 133 135 137 137 138 139 140 141 141 142 143 143 143 143 143 142 143 144 144 146 147 149 149 150 150 151 152 153 153 153 153 153 152 152 152 152 152 152 151 151 151 151 151 150 150 149 148 147 147 147 147 147 146 145 143 141 140 139 138 137 135 134 132
73 73 73 73 76 80 85 87 85 82 80 83 91 101 107 109 111 116 120 123 125 127 129 131 132 134 135 136 137 138 139 140 141 141 141 141 141 140 140 140 140 140 141 142 144 145 146 147 148 149 151 152 153 154 153 153 153 153 153 153 153 152 152 151 151 151 151 151 150 150 149 148 148 147 147 147 146 145 144 142 141 140 138 137 135 134
70 70 72 75 78 81 84 84 81 79 80 83 88 96 102 104 106 110 114 117 121 123 125 127 128 130 132 134 135 136 137 138 139 139 140 140 140 140 139 138 137 137 137 138 139 140 141 141 142 144 146 148 150 151 152 152 152 152 152 153 153 153 152 152 152 151 151 150 150 150 150 150 149 148 147 146 146 145 144 143 142 140 139 137 136 134
66 67 71 75 77 79 80 79 78 78 80 84 88 93 99 102 104 106 109 111 114 117 119 121 123 126 128 130 131 132 134 135 136 137 138 138 139 139 138 138 136 135 134 134 135 136 136 137 137 139 140 142 144 146 147 148 148 149 149 150 151 151 151 151 151 150 150 149 149 149 148 148 148 147 146 145 144 143 142 141 140 139 138 136 135 133
64 66 70 72 75 77 76 75 76 78 82 85 88 92 96 99 102 104 106 107 109 111 113 114 117 120 124 125 126 127 128 130 131 132 134 136 136 137 137 136 135 134 133 133 133 134 134 134 135 135 137 138 140 141 142 143 144 144 144 145 145 146 146 146 146 146 146 146 145 145 144 144 143 143 142 142 141 139 138 137 137 136 135 134 133 132
64 67 69 70 72 74 74 73 74 77 81 84 86 90 95 99 101 103 105 106 107 108 109 110 111 114 118 119 120 120 122 123 125 126 128 130 131 132 133 133 133 132 133 133 133 133 133 133 133 134 135 136 137 138 139 140 141 141 141 141 141 142 142 142 142 142 141 141 141 140 139 139 139 138 138 138 137 137 136 135 134 133 132 132 132 131
63 66 67 68 70 72 73 73 74 77 80 83 86 91 94 97 100 102 103 104 105 105 106 106 107 108 110 111 112 113 114 116 118 119 121 122 124 126 128 128 129 129 130 131 131 131 131 131 132 132 133 134 135 136 137 137 138 138 138 138 139 139 140 140 139 139 138 138 138 137 136 136 136 135 135 135 135 135 134 134 133 132 131 131 131 130
64 66 68 70 72 73 74 75 77 79 82 84 87 90 93 95 97 99 100 101 102 102 102 102 103 103 104 105 106 107 107 108 110 111 113 115 117 120 121 122 123 124 124 125 126 127 127 127 128 129 130 131 132 133 133 134 135 135 136 136 137 137 138 137 137 137 137 137 136 136 135 134 134 134 134 134 133 134 134 133 133 132 131 130 130 129
69 71 72 74 76 78 78 79 80 82 85 88 90 91 92 94 95 96 97 98 98 98 97 98 98 99 100 101 102 103 103 103 104 104 105 106 109 112 114 115 116 117 117 118 119 120 121 121 122 123 124 125 126 127 128 128 129 130 130 131 132 133 133 134 134 134 134 134 134 134 133 133 132 132 132 132 132 132 132 132 132 132 130 129 128 127
Wind_Direction
237 237 236 235 236 236 237 238 238 237 236 236 237 238 239 240 241 241 240 239 241 242 241 242 244 244 247 252 252 252 251 250 249 249 249 249 250 251 251 251 250 248 249 250 251 251 252 252 253 254 255 256 256 256 256 256 255 254 253 253 253 253 253 254 255 256 257 259 261 263 265 267 270 271 273 275 277 279 280 282 285 287 288 289 289 290
237 238 237 235 234 235 236 236 236 236 235 235 236 237 238 240 240 241 242 240 241 243 242 241 242 243 246 250 252 251 251 251 250 250 249 249 249 250 252 253 252 251 251 251 251 251 252 253 254 255 256 256 257 257 258 257 257 258 258 257 257 256 255 255 256 257 258 260 262 265 267 269 271 273 274 276 277 279 281 283 285 286 287 288 289 290
237 237 237 235 234 234 235 235 236 236 237 236 237 237 237 239 240 241 242 242 241 242 242 241 241 242 244 248 251 251 251 250 250 249 249 249 249 250 252 253 254 254 253 252 251 251 252 253 254 255 256 257 258 258 258 258 258 259 259 259 258 257 257 257 259 260 262 264 265 267 270 272 274 275 277 279 280 282 284 286 287 287 288 289 290 292
237 238 237 236 235 235 236 236 237 237 238 238 238 238 237 239 240 241 242 242 242 242 242 241 240 240 242 246 250 251 250 250 250 250 250 251 251 251 252 253 254 255 254 253 252 252 252 253 254 255 256 257 258 259 259 259 259 259 259 259 259 259 260 261 261 263 264 266 267 268 270 272 274 277 279 280 281 283 285 286 287 288 289 289 291 293
238 238 237 237 236 236 236 236 237 238 238 238 238 238 238 239 240 242 241 240 241 243 242 241 239 238 240 244 247 250 250 249 250 251 252 252 252 253 253 253 253 254 255 254 253 253 253 253 253 254 256 257 259 260 260 261 261 261 260 261 262 263 264 264 264 265 266 268 269 270 272 274 276 278 279 280 282 284 286 286 287 288 289 290 292 293
238 238 238 237 237 236 236 236 237 237 238 238 238 238 238 238 240 241 241 240 240 242 242 241 240 238 239 241 245 249 250 249 250 251 252 252 253 253 254 254 253 254 255 255 254 254 253 253 254 254 256 257 258 260 261 262 262 262 263 264 265 266 266 266 267 268 269 270 272 274 276 277 279 280 281 282 285 287 287 288 289 289 290 292 293 295
236 237 237 237 237 237 236 236 236 237 237 238 238 238 238 239 239 240 241 240 239 241 242 242 241 238 238 241 243 247 251 249 249 251 252 252 253 253 254 255 255 254 254 254 255 255 254 253 254 254 255 257 258 260 261 262 262 264 265 266 266 266 266 267 268 270 271 272 274 275 277 279 280 281 282 284 286 288 288 289 290 291 292 294 295 297
234 236 237 238 238 238 236 236 236 237 238 238 238 238 238 239 240 240 240 241 240 240 241 242 242 239 237 241 243 245 249 250 249 250 252 252 253 253 254 254 255 255 255 255 255 255 255 254 254 254 255 256 257 259 260 261 262 264 264 265 265 266 266 267 268 269 271 272 273 275 277 279 280 281 283 285 287 288 288 290 291 292 293 295 296 297
234 236 238 239 239 239 238 237 236 237 238 238 238 238 239 239 240 240 240 241 240 241 241 241 243 242 237 239 244 245 247 250 249 249 250 252 253 253 253 254 254 255 256 256 256 256 256 255 255 255 255 255 256 258 259 260 262 263 264 264 265 265 266 266 267 268 269 270 271 274 276 277 278 280 282 285 286 287 288 289 290 291 292 294 295 296
233 234 236 238 239 239 239 238 237 236 237 238 238 238 238 239 240 240 240 241 241 241 241 240 243 244 239 237 242 244 246 249 249 248 250 252 252 252 253 253 254 255 256 256 256 257 257 256 256 256 255 255 256 257 259 260 261 262 263 264 264 265 266 266 267 268 269 270 271 272 274 276 278 280 282 284 285 286 287 288 288 290 291 293 294 295
232 232 234 235 237 238 239 239 237 236 236 237 237 237 238 239 240 241 241 241 241 241 241 241 243 244 241 237 240 243 245 248 251 250 250 251 252 252 252 253 253 254 255 256 256 257 257 257 257 256 256 256 256 257 258 260 260 260 261 263 264 265 266 266 267 268 268 269 271 272 273 275 277 279 281 283 284 285 286 286 287 288 290 291 292 293
232 232 233 234 236 237 238 239 238 237 237 237 238 238 238 239 240 242 242 242 243 243 242 243 245 246 242 238 240 243 245 248 252 252 250 249 252 252 252 252 253 253 254 255 255 256 257 257 257 257 257 256 256 256 257 258 258 259 261 262 263 264 265 266 266 267 268 270 271 272 273 275 277 279 281 282 283 284 285 286 287 288 289 290 291 292
232 233 233 234 235 236 238 240 241 240 238 239 239 239 239 240 241 242 243 243 245 244 244 243 245 246 243 239 239 242 243 246 249 251 251 249 250 252 252 252 251 252 252 253 254 255 256 256 257 257 257 257 256 256 256 256 257 259 260 261 262 263 264 265 266 267 269 270 271 272 274 275 277 279 280 282 283 284 285 285 287 288 289 290 291 291
232 233 233 234 234 235 237 240 242 243 242 241 240 240 240 240 241 243 244 245 246 245 244 243 243 245 243 239 238 240 241 244 246 249 251 250 249 250 251 251 251 250 251 252 253 254 255 255 256 256 256 256 256 256 256 256 257 258 259 260 262 263 265 266 267 269 270 270 271 273 274 275 276 278 279 281 282 283 284 285 286 288 289 289 289 290
231 232 233 234 234 236 238 240 242 244 244 243 241 240 240 240 241 242 243 244 245 244 243 242 243 244 244 241 239 238 239 242 244 247 250 251 250 249 250 251 251 251 251 251 252 253 254 254 255 256 256 256 256 256 256 257 257 258 259 260 262 263 265 266 267 268 269 270 271 272 273 275 276 277 278 280 281 283 284 285 287 288 288 288 289 289
231 231 232 233 233 234 235 238 240 242 244 245 244 243 242 243 243 243 243 244 245 245 244 243 244 245 244 243 240 238 238 240 243 245 248 250 251 250 250 251 252 252 252 251 251 251 252 253 254 255 256 256 256 256 256 257 258 259 260 261 262 263 264 265 266 267 268 269 271 272 273 274 275 276 277 279 280 281 283 285 286 287 288 288 289 289
232 232 232 232 232 233 233 235 236 238 241 243 245 245 244 244 244 244 244 244 245 245 244 244 245 246 245 243 242 241 240 240 242 244 246 248 251 251 251 251 252 252 252 252 251 251 252 252 253 254 255 255 256 256 257 257 258 260 261 261 262 263 264 265 266 267 268 269 271 272 273 274 275 276 277 278 279 280 282 284 285 286 287 288 288 289
232 232 232 232 232 232 233 233 235 236 239 242 244 245 245 244 243 244 244 245 245 246 245 244 244 246 246 244 244 243 242 242 243 244 245 246 249 251 252 251 251 252 253 253 252 252 252 252 253 254 254 255 255 256 257 258 259 260 261 261 262 263 264 265 267 268 269 270 271 272 273 275 276 276 277 278 279 280 281 282 283 284 285 287 288 289
231 231 232 231 231 232 233 233 234 236 238 240 243 245 246 246 246 246 246 246 246 247 247 246 245 245 246 245 244 244 244 244 243 244 245 246 247 249 252 253 252 252 253 254 253 253 252 252 252 253 254 255 256 256 257 258 259 259 260 261 262 263 264 266 267 268 269 270 272 273 274 275 276 276 277 278 279 280 280 281 282 283 284 285 286 288
232 231 232 232 231 231 232 234 235 236 237 239 241 243 245 246 247 248 248 247 247 247 248 247 246 244 244 245 245 244 245 245 245 245 245 246 246 247 250 253 254 254 254 254 254 254 254 253 253 253 254 255 256 257 257 258 259 259 260 261 262 263 264 266 267 268 269 271 271 272 273 274 275 275 276 277 278 279 280 280 281 282 283 284 286 287
233 232 232 232 232 232 232 233 235 236 237 238 239 241 243 245 247 248 249 249 248 248 248 248 247 245 244 244 244 244 244 245 246 246 246 247 247 247 248 250 253 254 254 255 255 255 255 255 254 254 254 255 255 256 257 258 259 260 261 262 263 264 265 265 266 268 269 270 270 271 272 273 273 274 275 276 277 278 279 280 281 282 283 284 285 286
233 233 233 232 232 232 232 233 234 234 235 236 237 239 240 243 245 247 249 250 251 250 250 250 249 246 244 243 243 243 244 244 245 246 247 247 247 247 247 248 250 252 254 255 256 257 257 257 257 256 256 255 255 256 257 257 258 260 261 262 263 264 265 266 266 267 268 269 270 270 271 272 273 274 275 276 277 278 279 280 281 282 283 284 285 286
233 233 233 233 232 232 232 232 232 233 234 235 236 237 238 240 243 246 248 250 251 252 252 251 250 248 246 244 243 242 242 243 244 245 247 248 248 248 248 248 249 251 252 254 255 257 258 258 258 258 258 257 256 256 256 257 258 259 260 261 262 263 264 265 266 266 267 268 269 270 271 272 273 274 275 276 277 278 279 280 281 282 283 283 284 285
232 233 233 233 233 232 232 232 232 233 234 234 235 237 237 238 241 243 245 247 249 250 251 252 251 250 247 245 244 242 242 243 244 245 246 248 249 249 249 249 250 251 252 253 254 256 257 258 258 259 259 259 259 258 258 257 257 258 259 260 261 262 263 264 265 265 266 267 268 269 271 272 273 274 275 276 277 278 278 279 280 281 282 283 283 284
232 233 233 233 233 232 232 232 232 233 234 234 235 236 237 238 239 240 242 244 246 248 250 251 252 251 249 247 246 244 242 243 244 245 245 247 248 249 250 250 251 252 252 253 254 255 256 257 258 259 259 260 260 260 259 259 259 259 259 259 260 261 262 263 264 265 266 267 268 269 270 271 273 274 275 276 277 278 278 279 279 280 281 282 283 284
231 232 232 233 233 233 232 232 232 233 234 234 235 236 237 237 238 239 240 242 244 246 248 249 251 251 251 250 249 247 245 244 244 244 245 246 247 249 250 250 251 252 253 254 254 255 255 256 257 258 259 259 260 260 260 260 260 260 260 260 260 261 262 263 264 265 266 267 268 269 271 272 273 274 275 276 277 277 278 278 279 280 281 281 282 284
231 232 232 233 233 233 233 233 232 232 233 234 234 234 235 236 237 238 239 240 241 244 246 248 249 250 250 251 251 251 249 247 245 244 244 245 247 248 249 250 251 251 252 253 254 254 255 256 256 257 258 258 259 260 260 260 261 261 261 262 262 263 263 264 265 266 267 268 268 269 270 271 272 273 274 275 276 277 278 278 279 280 280 281 282 283
232 232 233 233 234 234 234 234 233 233 233 234 234 234 235 236 237 238 238 239 240 242 244 246 248 249 249 250 251 252 252 252 250 247 245 245 246 247 248 249 250 251 251 252 252 253 254 255 256 257 257 258 259 260 260 261 261 262 262 263 263 264 265 265 266 267 267 268 269 270 270 271 272 273 274 275 276 277 277 278 279 279 280 281 282 283
232 233 233 233 234 234 235 235 235 234 234 235 235 235 235 236 237 238 238 239 240 241 243 245 246 248 249 249 250 251 253 254 254 253 251 248 246 246 247 248 249 250 251 251 252 252 253 254 255 256 258 259 260 260 261 261 261 262 263 264 264 265 265 266 267 268 269 270 270 271 271 272 273 273 274 275 275 276 277 278 278 279 280 280 281 282
233 233 234 234 234 235 235 236 236 236 236 236 236 236 236 237 237 238 239 239 240 241 243 244 246 247 248 248 248 250 252 253 254 255 256 254 252 249 248 248 249 250 251 252 252 253 254 255 256 257 258 259 260 260 261 261 262 262 263 264 265 265 266 266 267 268 269 270 270 271 272 272 273 273 274 274 275 276 276 277 278 278 279 280 281 281
233 234 234 235 235 235 236 236 237 237 237 237 237 237 237 238 238 239 239 240 241 241 243 244 245 247 248 247 246 246 249 251 253 254 256 257 257 256 254 252 251 251 251 251 252 253 254 254 255 256 257 257 258 259 260 261 262 262 262 263 264 265 265 266 266 267 267 268 269 269 270 271 272 273 274 274 275 276 276 277 277 278 279 280 280 281
233 234 234 235 235 235 236 237 237 238 237 237 238 238 238 239 239 240 240 240 241 242 242 244 245 246 247 247 246 244 245 248 251 253 254 256 257 258 258 258 257 256 254 253 252 252 252 253 254 254 255 256 257 258 259 260 261 262 263 263 263 264 264 265 265 266 266 267 267 268 269 270 271 272 273 274 274 275 276 277 278 278 279 280 280 281
233 233 234 234 235 235 235 236 237 237 237 237 237 238 239 240 240 240 241 241 241 242 243 243 245 246 246 246 246 245 244 245 248 250 252 252 253 254 256 258 259 260 259 259 257 256 255 254 253 254 254 255 256 257 258 259 260 261 262 263 264 264 264 264 265 265 266 267 267 268 268 269 269 270 271 272 273 273 274 275 276 277 278 279 280 280
235 235 235 235 236 236 236 237 238 238 238 238 238 239 240 241 241 242 242 242 243 243 244 244 244 245 246 246 247 246 246 245 246 247 248 249 250 251 253 255 257 258 260 261 261 261 261 259 258 256 256 256 256 257 258 258 259 260 261 263 264 264 264 264 264 265 265 266 267 267 268 268 269 270 270 271 271 272 273 274 274 275 276 277 278 278
238 238 238 238 238 238 237 238 239 240 240 241 240 241 241 242 243 243 243 244 244 245 245 245 245 245 245 246 247 247 246 245 245 245 246 248 249 250 250 251 253 255 257 258 260 261 263 264 263 262 262 261 260 260 260 259 259 259 260 261 263 264 264 264 264 265 265 266 266 267 267 268 269 269 270 271 271 272 272 273 273 274 275 276 277 278
240 240 240 240 240 240 239 240 241 242 242 242 242 243 243 244 245 245 245 244 245 245 245 245 246 245 245 246 246 247 247 246 245 245 246 247 249 250 249 249 250 252 254 255 257 259 261 263 264 265 265 266 266 266 265 265 264 264 263 263 263 263 264 264 264 264 264 265 265 266 267 267 268 268 269 270 271 271 272 273 274 275 276 278 279 280
242 242 242 242 242 242 242 242 242 243 243 243 243 244 244 245 245 245 245 245 244 245 245 246 246 246 246 247 247 247 247 247 246 245 245 246 247 249 250 250 250 250 252 253 255 257 258 259 261 263 264 265 266 266 267 268 268 269 269 269 268 268 268 267 267 265 264 264 265 266 267 267 268 269 270 271 272 273 274 275 276 278 279 281 282 283
245 244 244 244 244 244 244 244 244 244 244 244 245 245 244 245 245 245 245 245 244 245 246 247 247 247 247 247 247 247 247 247 247 246 246 246 246 248 249 251 251 251 252 252 254 255 256 257 259 260 261 262 263 264 265 266 266 267 268 269 269 270 270 270 271 270 270 269 269 269 270 270 271 272 273 274 275 276 277 277 278 279 280 282 282 283
249 249 248 248 247 246 245 245 245 245 245 244 244 244 244 245 245 245 246 245 245 245 246 247 247 247 247 247 247 248 248 248 248 248 247 247 247 247 248 250 251 252 252 253 253 254 255 256 257 258 259 260 261 262 263 264 264 265 265 266 267 268 269 269 270 271 272 272 272 272 272 273 273 274 275 275 276 277 278 278 279 280 281 281 282 282
253 253 251 251 250 249 248 247 246 246 245 245 245 245 245 245 245 246 247 247 246 246 246 247 247 248 248 248 248 249 249 250 250 249 249 248 248 248 248 249 250 251 252 253 253 254 255 255 256 257 258 259 260 261 262 263 263 264 264 264 265 266 267 267 268 269 270 271 272 272 273 273 274 274 275 275 275 276 276 277 278 279 280 280 280 280
254 252 251 250 249 249 248 248 247 246 245 246 246 246 246 246 246 247 247 247 247 246 246 247 248 248 249 249 250 250 251 251 251 251 251 250 250 249 249 249 249 249 250 251 252 253 254 255 256 256 257 258 259 260 260 261 262 263 264 264 264 265 265 266 267 267 268 269 270 271 272 273 273 274 274 274 274 274 275 275 276 277 277 277 277 278
252 250 249 249 249 249 249 248 246 245 245 247 247 246 246 246 246 247 247 247 247 247 247 247 248 249 250 250 251 251 252 252 253 253 253 252 252 251 250 250 250 250 250 251 251 252 253 254 255 256 256 257 258 259 260 260 261 262 263 263 264 265 265 266 267 267 268 268 269 270 271 272 272 273 273 274 274 274 274 274 275 275 275 275 275 276
250 249 249 249 250 250 249 248 247 246 245 246 247 246 245 247 248 248 248 248 248 248 248 248 249 250 250 251 251 252 253 253 253 253 254 253 253 253 252 252 252 251 251 251 252 252 252 253 254 255 256 257 257 258 259 260 260 261 262 263 264 264 265 266 267 267 268 269 269 270 270 271 271 272 273 273 273 274 274 274 274 274 275 275 275 275
250 250 250 250 251 251 249 249 248 248 246 246 247 247 247 248 249 250 250 250 249 249 249 249 249 250 250 251 251 252 252 253 254 254 254 254 254 254 254 254 253 253 253 253 253 253 253 253 254 254 255 256 257 258 258 259 260 260 261 262 263 264 264 265 266 267 268 268 269 269 270 270 270 271 272 273 273 274 274 274 274 274 274 274 274 275
250 250 250 249 249 250 250 251 251 251 250 248 248 248 248 248 248 249 250 250 250 250 250 250 250 250 250 251 251 252 252 253 254 254 255 255 255 255 255 255 255 255 255 255 255 255 255 255 255 255 256 256 257 258 258 259 259 260 261 261 262 263 263 264 265 265 266 267 268 268 269 270 270 270 271 271 272 273 273 274 274 274 274 274 274 274
250 250 251 251 250 251 252 253 253 253 252 251 249 248 248 249 248 249 250 251 251 251 251 251 251 251 251 251 252 252 252 253 254 254 255 256 256 256 256 256 256 256 256 256 256 256 256 256 256 256 257 257 258 258 259 259 260 260 260 261 262 262 263 263 264 265 265 266 266 267 268 269 269 270 270 271 271 271 272 272 273 273 273 274 274 273
250 249 250 251 252 252 252 253 254 254 253 252 251 250 250 250 249 249 250 251 251 252 252 252 252 252 252 253 253 253 254 254 254 255 256 256 257 257 258 258 258 258 258 258 257 257 257 257 257 257 257 258 258 259 259 260 260 261 261 261 262 262 263 263 264 264 265 265 266 267 267 268 268 269 270 270 270 271 271 271 272 272 272 273 273 273
251 251 250 251 253 255 254 253 253 254 254 253 252 252 251 251 251 250 250 250 251 252 252 252 252 253 254 254 254 255 255 256 256 256 257 257 258 258 259 259 259 259 258 258 258 258 258 258 258 258 258 258 259 259 260 260 261 261 262 262 262 263 263 264 264 265 265 265 266 266 267 267 268 268 269 269 270 270 270 270 270 271 271 272 272 273
252 253 253 253 253 254 254 253 252 252 252 253 253 252 252 252 252 252 252 252 252 252 253 253 254 254 255 256 256 256 257 258 258 258 258 258 259 259 259 259 259 259 259 259 259 259 258 258 259 259 259 259 259 260 260 260 261 261 262 262 263 263 263 264 264 264 265 265 265 266 266 266 267 267 268 268 269 269 269 270 270 270 270 271 271 272
255 254 255 256 255 253 252 252 251 250 251 251 252 252 253 253 254 254 254 254 254 254 254 254 255 255 256 257 258 258 258 258 259 259 259 259 259 260 260 260 260 260 260 260 260 260 260 260 259 259 260 260 260 260 260 260 261 261 262 262 262 263 263 263 264 264 264 264 265 265 265 266 266 266 267 267 268 268 269 269 269 269 269 270 270 271
258 257 256 257 257 255 253 252 251 251 250 250 251 251 252 253 255 256 257 257 257 256 255 255 255 255 256 256 257 258 258 259 259 260 260 260 260 260 260 260 261 261 261 261 261 261 261 261 261 261 261 261 261 262 262 262 262 262 262 262 262 262 262 262 263 263 263 264 264 264 264 265 265 265 266 266 267 267 268 268 268 269 269 268 269 269
Height
10685 10693 10703 10717 10729 10732 10733 10736 10744 10749 10750 10752 10755 10761 10768 10774 10779 10778 10779 10788 10788 10789 10799 10804 10806 10812 10808 10803 10808 10816 10821 10828 10831 10832 10833 10832 10832 10834 10835 10836 10838 10840 10842 10845 10848 10849 10850 10850 10850 10852 10852 10852 10852 10853 10854 10854 10854 10854 10854 10855 10855 10856 10857 10855 10856 10857 10857 10858 10858 10858 10857 10857 10857 10856 10855 10855 10855 10855 10855 10856 10855 10854 10852 10851 10849 10848
10676 10683 10698 10715 10722 10720 10717 10722 10730 10734 10736 10742 10747 10755 10762 10766 10771 10769 10771 10784 10785 10784 10793 10798 10800 10807 10806 10800 10802 10810 10817 10823 10826 10825 10824 10824 10828 10831 10831 10831 10833 10836 10838 10840 10842 10844 10845 10845 10846 10847 10847 10847 10848 10849 10850 10849 10850 10851 10851 10851 10852 10853 10852 10851 10852 10852 10853 10854 10855 10854 10854 10853 10853 10852 10851 10851 10851 10851 10851 10852 10851 10850 10848 10846 10845 10844
10667 10675 10693 10706 10708 10706 10707 10714 10722 10723 10726 10736 10742 10749 10757 10761 10762 10762 10768 10779 10780 10779 10783 10789 10796 10802 10802 10797 10797 10804 10811 10816 10818 10816 10816 10819 10824 10828 10827 10826 10828 10831 10832 10833 10835 10838 10839 10840 10841 10842 10842 10842 10844 10844 10844 10845 10846 10847 10847 10847 10848 10848 10848 10848 10848 10849 10850 10851 10851 10850 10850 10849 10849 10848 10848 10847 10847 10847 10848 10848 10846 10845 10844 10842 10841 10840
10662 10674 10687 10695 10698 10700 10704 10710 10714 10715 10720 10731 10737 10742 10752 10754 10752 10756 10763 10769 10772 10772 10774 10781 10789 10795 10797 10796 10795 10798 10804 10809 10810 10810 10812 10816 10820 10823 10822 10821 10823 10823 10823 10826 10829 10831 10834 10835 10836 10837 10837 10838 10838 10838 10839 10840 10842 10842 10842 10843 10843 10844 10844 10844 10845 10846 10846 10847 10846 10846 10846 10845 10844 10844 10844 10843 10843 10844 10844 10843 10842 10841 10840 10838 10837 10836
10657 10668 10675 10683 10688 10692 10697 10701 10704 10707 10714 10724 10729 10734 10744 10745 10744 10748 10752 10759 10764 10763 10766 10771 10777 10788 10794 10793 10792 10791 10795 10803 10805 10806 10809 10812 10814 10815 10816 10817 10817 10815 10815 10819 10822 10824 10828 10829 10831 10832 10832 10833 10833 10833 10834 10836 10837 10837 10837 10838 10840 10841 10841 10841 10841 10842 10843 10842 10841 10842 10841 10840 10840 10840 10839 10839 10839 10840 10840 10839 10838 10837 10835 10834 10833 10833
10647 10654 10661 10670 10676 10681 10688 10692 10697 10701 10706 10713 10718 10725 10732 10733 10735 10738 10741 10750 10755 10752 10756 10760 10768 10784 10790 10788 10790 10786 10787 10798 10801 10802 10805 10807 10807 10808 10808 10809 10809 10809 10808 10810 10813 10816 10821 10823 10825 10826 10826 10827 10827 10827 10829 10831 10832 10832 10832 10834 10836 10836 10836 10836 10836 10837 10838 10837 10836 10837 10836 10835 10835 10834 10833 10834 10836 10836 10835 10834 10833 10832 10831 10830 10829 10828
10635 10641 10648 10657 10664 10671 10678 10684 10689 10692 10695 10700 10708 10715 10720 10723 10727 10730 10732 10738 10745 10745 10746 10751 10761 10778 10783 10783 10788 10784 10781 10792 10798 10798 10799 10801 10800 10800 10801 10800 10800 10801 10801 10802 10805 10808 10813 10816 10818 10820 10821 10822 10822 10822 10824 10825 10826 10827 10828 10829 10830 10830 10831 10831 10831 10832 10833 10832 10831 10831 10831 10829 10829 10828 10828 10830 10831 10831 10830 10829 10828 10827 10826 10825 10824 10823
10629 10633 10636 10646 10655 10660 10668 10676 10681 10685 10687 10692 10701 10707 10712 10716 10717 10720 10723 10727 10736 10736 10735 10746 10755 10767 10780 10782 10783 10782 10778 10784 10793 10794 10792 10793 10794 10793 10794 10793 10792 10792 10792 10795 10799 10801 10805 10809 10811 10814 10816 10816 10816 10816 10818 10819 10821 10822 10822 10823 10824 10824 10825 10825 10826 10827 10827 10827 10826 10825 10825 10824 10823 10822 10823 10825 10826 10825 10825 10824 10823 10822 10821 10820 10820 10818
10631 10631 10630 10638 10646 10650 10659 10669 10675 10678 10678 10684 10693 10698 10703 10705 10704 10710 10714 10717 10725 10723 10727 10745 10749 10755 10778 10782 10775 10777 10777 10778 10785 10787 10786 10788 10788 10786 10786 10786 10784 10783 10784 10789 10792 10793 10797 10800 10804 10807 10809 10810 10809 10810 10812 10814 10815 10816 10816 10816 10817 10818 10818 10819 10820 10821 10821 10821 10821 10820 10819 10818 10817 10817 10818 10820 10820 10819 10819 10819 10817 10817 10816 10815 10814 10813
10617 10622 10623 10625 10631 10640 10649 10655 10663 10667 10668 10674 10680 10684 10691 10692 10693 10699 10703 10708 10713 10709 10721 10744 10744 10746 10769 10777 10769 10770 10774 10774 10775 10779 10783 10783 10779 10777 10777 10778 10778 10776 10777 10781 10784 10786 10788 10792 10796 10799 10802 10803 10804 10805 10806 10808 10809 10808 10808 10809 10810 10810 10811 10813 10813 10814 10815 10815 10816 10815 10814 10813 10812 10812 10813 10814 10814 10813 10813 10813 10812 10811 10811 10811 10809 10808
10601 10610 10609 10609 10617 10628 10633 10637 10649 10654 10655 10661 10665 10672 10682 10684 10686 10689 10693 10700 10697 10696 10721 10743 10739 10736 10752 10768 10767 10767 10772 10771 10769 10773 10778 10774 10767 10768 10771 10770 10770 10769 10770 10774 10776 10778 10781 10784 10787 10791 10794 10796 10798 10801 10801 10801 10800 10800 10800 10801 10802 10803 10804 10806 10806 10807 10808 10809 10810 10809 10809 10808 10806 10807 10808 10808 10808 10808 10807 10807 10806 10806 10806 10805 10804 10802
10592 10597 10599 10603 10610 10618 10620 10623 10634 10642 10646 10651 10656 10667 10675 10676 10680 10680 10683 10688 10681 10694 10726 10740 10733 10724 10737 10763 10767 10764 10770 10770 10764 10764 10765 10764 10760 10761 10763 10761 10762 10763 10764 10765 10767 10770 10773 10776 10778 10782 10786 10788 10791 10794 10793 10792 10791 10791 10793 10794 10795 10795 10796 10798 10799 10800 10801 10802 10803 10802 10803 10803 10802 10802 10802 10801 10801 10801 10801 10800 10800 10801 10800 10799 10798 10797
10583 10588 10593 10600 10604 10610 10613 10613 10621 10631 10640 10645 10650 10662 10667 10669 10672 10670 10675 10678 10677 10698 10724 10731 10723 10708 10721 10756 10762 10760 10767 10764 10758 10751 10749 10755 10755 10751 10751 10750 10752 10755 10755 10757 10759 10762 10766 10768 10770 10773 10776 10779 10782 10785 10785 10783 10783 10784 10786 10786 10787 10787 10787 10790 10792 10793 10794 10795 10796 10795 10797 10798 10797 10797 10796 10794 10794 10794 10794 10793 10793 10794 10794 10793 10792 10791
10578 10581 10583 10587 10594 10604 10607 10610 10616 10624 10634 10641 10646 10654 10657 10661 10663 10663 10670 10672 10672 10692 10709 10715 10707 10689 10708 10748 10756 10756 10760 10754 10750 10742 10737 10743 10745 10741 10740 10739 10741 10744 10747 10751 10754 10755 10757 10758 10761 10763 10767 10771 10773 10775 10775 10775 10775 10777 10778 10779 10781 10780 10781 10784 10786 10787 10788 10788 10788 10789 10790 10791 10791 10791 10790 10788 10787 10786 10786 10786 10786 10786 10786 10786 10785 10784
10562 10564 10570 10581 10595 10605 10608 10612 10616 10617 10621 10626 10632 10638 10640 10647 10652 10653 10660 10659 10661 10677 10690 10696 10688 10679 10708 10741 10745 10748 10750 10744 10743 10737 10730 10731 10731 10731 10731 10730 10731 10734 10740 10745 10747 10748 10748 10750 10752 10754 10757 10761 10764 10765 10765 10766 10768 10770 10771 10773 10776 10775 10776 10778 10780 10780 10780 10780 10780 10782 10783 10783 10783 10784 10784 10782 10781 10779 10778 10779 10779 10778 10778 10777 10777 10776
10546 10550 10564 10578 10586 10595 10600 10603 10605 10605 10605 10606 10613 10620 10628 10641 10645 10643 10648 10650 10653 10661 10674 10682 10676 10680 10709 10727 10731 10739 10741 10738 10736 10730 10724 10720 10718 10722 10724 10723 10723 10727 10732 10736 10737 10739 10740 10742 10744 10745 10748 10751 10753 10756 10756 10758 10761 10764 10766 10768 10769 10768 10769 10771 10772 10771 10772 10773 10773 10774 10775 10775 10776 10776 10777 10776 10774 10772 10772 10772 10771 10770 10768 10768 10768 10768
10537 10544 10559 10566 10569 10579 10586 10587 10589 10591 10591 10592 10596 10605 10620 10631 10630 10630 10636 10641 10642 10643 10657 10672 10670 10678 10701 10714 10722 10731 10730 10731 10729 10721 10715 10710 10708 10713 10716 10715 10715 10718 10722 10724 10727 10730 10732 10734 10735 10736 10739 10741 10743 10746 10748 10751 10755 10757 10759 10760 10760 10760 10761 10762 10764 10764 10764 10765 10766 10766 10767 10768 10768 10769 10769 10768 10767 10766 10766 10766 10764 10762 10760 10759 10758 10759
10525 10532 10544 10553 10560 10570 10574 10573 10575 10580 10584 10585 10586 10596 10607 10609 10610 10617 10624 10628 10629 10629 10642 10660 10666 10673 10689 10704 10717 10719 10719 10722 10717 10708 10705 10705 10704 10703 10703 10705 10707 10708 10710 10713 10716 10720 10723 10725 10726 10727 10729 10731 10734 10737 10740 10744 10747 10749 10749 10750 10750 10751 10752 10754 10756 10757 10757 10758 10759 10759 10759 10760 10760 10760 10760 10759 10759 10759 10760 10759 10756 10755 10753 10751 10750 10750
10508 10516 10527 10539 10549 10556 10556 10558 10565 10572 10578 10579 10581 10588 10589 10589 10598 10609 10613 10618 10622 10622 10629 10645 10659 10668 10679 10697 10707 10705 10706 10706 10699 10697 10698 10699 10700 10697 10693 10695 10699 10700 10700 10701 10704 10708 10713 10715 10716 10718 10720 10722 10725 10728 10732 10736 10738 10740 10740 10741 10742 10742 10745 10747 10748 10749 10749 10750 10752 10751 10751 10751 10751 10751 10750 10750 10751 10751 10752 10750 10748 10748 10746 10745 10744 10743
10497 10506 10517 10528 10537 10541 10543 10550 10560 10569 10572 10573 10576 10579 10577 10578 10587 10594 10599 10606 10610 10611 10615 10626 10642 10657 10674 10690 10692 10690 10692 10688 10685 10691 10690 10687 10692 10694 10690 10686 10687 10690 10690 10690 10692 10696 10700 10704 10707 10710 10711 10713 10717 10720 10724 10727 10728 10730 10731 10733 10735 10736 10738 10740 10741 10742 10742 10743 10744 10743 10742 10742 10742 10742 10742 10742 10742 10742 10743 10742 10740 10739 10738 10738 10738 10736
10486 10496 10506 10516 10523 10530 10537 10547 10559 10564 10561 10560 10565 10569 10571 10573 10574 10576 10583 10590 10594 10597 10602 10610 10623 10646 10671 10679 10674 10677 10682 10674 10673 10681 10679 10676 10683 10687 10685 10681 10677 10677 10678 10679 10682 10685 10689 10693 10696 10701 10703 10704 10708 10712 10715 10717 10718 10721 10723 10724 10727 10728 10730 10732 10733 10734 10734 10734 10735 10734 10733 10732 10733 10733 10734 10734 10734 10733 10733 10732 10732 10731 10730 10730 10729 10728
10475 10484 10494 10502 10512 10523 10533 10542 10548 10545 10541 10545 10553 10560 10565 10565 10561 10562 10569 10578 10583 10586 10592 10596 10603 10631 10659 10662 10660 10668 10668 10659 10662 10669 10668 10667 10672 10676 10677 10674 10669 10668 10669 10670 10673 10676 10679 10683 10685 10689 10692 10694 10699 10704 10705 10707 10710 10713 10715 10716 10718 10719 10720 10721 10724 10725 10724 10724 10724 10724 10723 10722 10723 10724 10724 10725 10725 10724 10724 10723 10723 10723 10722 10721 10719 10717
10464 10473 10479 10487 10500 10511 10518 10524 10528 10526 10528 10535 10541 10548 10555 10556 10554 10557 10563 10570 10571 10569 10575 10576 10580 10613 10642 10642 10645 10655 10651 10646 10652 10660 10659 10657 10659 10663 10666 10666 10663 10661 10662 10662 10665 10667 10670 10673 10674 10676 10679 10681 10687 10694 10695 10697 10701 10703 10705 10706 10707 10709 10709 10710 10713 10713 10714 10714 10713 10713 10712 10712 10713 10713 10714 10715 10715 10715 10715 10714 10714 10713 10713 10712 10709 10707
10451 10459 10464 10472 10485 10495 10500 10506 10511 10512 10515 10521 10529 10537 10545 10548 10552 10554 10552 10555 10554 10551 10557 10555 10559 10596 10622 10619 10626 10638 10638 10638 10643 10649 10650 10645 10645 10650 10654 10658 10656 10653 10655 10657 10658 10659 10660 10661 10663 10664 10666 10669 10674 10681 10683 10686 10691 10693 10694 10696 10696 10697 10697 10699 10701 10702 10703 10703 10702 10702 10702 10702 10702 10703 10704 10704 10705 10706 10705 10704 10704 10703 10702 10702 10699 10698
10441 10445 10449 10456 10466 10474 10480 10487 10495 10501 10506 10516 10525 10530 10533 10537 10541 10541 10539 10540 10539 10539 10545 10541 10545 10577 10597 10594 10606 10623 10628 10631 10632 10634 10638 10635 10635 10639 10642 10647 10648 10645 10647 10649 10649 10651 10651 10651 10652 10653 10655 10657 10661 10667 10670 10673 10677 10680 10682 10684 10685 10685 10686 10687 10689 10691 10692 10693 10693 10693 10693 10693 10693 10693 10693 10694 10694 10695 10694 10694 10694 10693 10692 10691 10689 10688
10427 10428 10433 10440 10447 10456 10466 10477 10491 10501 10503 10507 10513 10514 10516 10520 10523 10526 10528 10528 10528 10530 10535 10532 10534 10557 10572 10574 10590 10608 10613 10619 10620 10619 10625 10627 10628 10629 10630 10634 10638 10639 10638 10638 10639 10641 10641 10641 10642 10643 10644 10644 10646 10651 10655 10658 10662 10665 10669 10671 10672 10674 10675 10677 10679 10681 10682 10683 10683 10684 10683 10682 10682 10683 10683 10684 10684 10683 10683 10683 10683 10682 10681 10680 10678 10678
10411 10414 10422 10428 10434 10446 10458 10468 10479 10485 10482 10483 10491 10496 10497 10500 10504 10510 10511 10513 10520 10522 10522 10523 10524 10536 10555 10565 10577 10589 10591 10597 10606 10609 10613 10618 10619 10620 10621 10622 10625 10627 10627 10627 10627 10628 10629 10630 10632 10632 10631 10631 10633 10636 10640 10645 10648 10652 10656 10658 10659 10662 10665 10667 10669 10671 10671 10672 10673 10673 10672 10671 10672 10672 10673 10673 10672 10672 10671 10671 10670 10670 10670 10669 10668 10667
10398 10404 10413 10421 10427 10438 10447 10452 10460 10465 10463 10465 10475 10481 10482 10484 10488 10493 10495 10504 10514 10510 10507 10516 10514 10517 10544 10565 10568 10571 10571 10572 10584 10595 10602 10608 10610 10610 10610 10609 10610 10611 10611 10613 10614 10615 10616 10618 10620 10619 10618 10619 10623 10625 10627 10632 10636 10639 10643 10645 10647 10650 10653 10655 10657 10659 10659 10660 10662 10661 10660 10661 10662 10662 10662 10661 10660 10659 10659 10659 10658 10658 10658 10658 10657 10656
10388 10396 10406 10413 10419 10427 10433 10437 10444 10451 10453 10454 10463 10470 10473 10475 10477 10480 10486 10496 10503 10498 10499 10510 10506 10507 10539 10562 10559 10557 10559 10559 10566 10575 10582 10591 10596 10596 10596 10595 10596 10596 10594 10596 10600 10602 10604 10607 10610 10610 10610 10611 10613 10614 10616 10619 10623 10627 10631 10633 10636 10639 10642 10644 10645 10645 10646 10648 10648 10648 10648 10650 10651 10651 10650 10649 10648 10647 10647 10647 10647 10646 10646 10646 10645 10644
10382 10391 10400 10403 10408 10416 10422 10425 10431 10439 10442 10445 10453 10460 10463 10463 10464 10468 10475 10483 10490 10491 10494 10501 10500 10506 10530 10548 10551 10551 10549 10548 10552 10556 10560 10568 10571 10576 10583 10586 10585 10584 10581 10582 10586 10590 10594 10600 10602 10602 10602 10603 10601 10600 10603 10606 10610 10616 10620 10622 10624 10626 10630 10632 10633 10634 10635 10635 10635 10634 10635 10636 10637 10637 10637 10636 10636 10636 10635 10635 10635 10634 10633 10632 10632 10632
10376 10384 10390 10392 10397 10406 10414 10417 10420 10426 10432 10437 10442 10446 10448 10450 10453 10459 10467 10477 10484 10486 10489 10491 10492 10499 10514 10527 10539 10547 10540 10532 10538 10547 10551 10551 10548 10553 10564 10570 10571 10571 10568 10568 10573 10578 10582 10588 10590 10590 10591 10592 10589 10587 10590 10593 10598 10603 10608 10611 10612 10612 10615 10617 10619 10621 10623 10623 10623 10622 10623 10623 10623 10624 10623 10623 10623 10623 10623 10622 10622 10622 10620 10619 10619 10619
10365 10370 10376 10381 10385 10394 10405 10407 10406 10411 10416 10420 10423 10429 10434 10439 10447 10455 10462 10470 10474 10474 10475 10475 10477 10491 10504 10505 10512 10528 10532 10528 10532 10542 10544 10539 10535 10534 10537 10543 10548 10548 10547 10551 10559 10565 10568 10571 10573 10575 10577 10578 10577 10577 10580 10585 10588 10589 10591 10594 10596 10598 10600 10603 10605 10607 10609 10609 10609 10610 10612 10612 10613 10613 10612 10611 10610 10611 10611 10610 10609 10609 10608 10607 10606 10605
10350 10353 10362 10367 10369 10381 10393 10391 10389 10391 10389 10393 10408 10423 10429 10433 10440 10446 10450 10454 10459 10460 10462 10465 10472 10484 10489 10482 10484 10504 10525 10530 10528 10531 10530 10523 10518 10516 10519 10529 10532 10523 10522 10531 10539 10543 10547 10553 10558 10562 10565 10567 10565 10565 10570 10576 10580 10579 10577 10576 10579 10583 10586 10589 10592 10593 10595 10595 10595 10596 10598 10599 10601 10602 10601 10600 10599 10600 10600 10599 10597 10596 10595 10594 10594 10593
10344 10347 10354 10358 10360 10372 10383 10380 10376 10371 10368 10386 10414 10424 10423 10425 10429 10433 10437 10444 10450 10453 10453 10457 10465 10469 10466 10462 10468 10487 10509 10517 10514 10512 10511 10503 10499 10504 10517 10523 10516 10506 10508 10514 10516 10517 10524 10532 10539 10546 10551 10554 10553 10554 10559 10565 10570 10571 10569 10566 10565 10567 10570 10574 10577 10579 10581 10583 10582 10583 10584 10585 10587 10588 10588 10588 10588 10588 10588 10588 10587 10584 10583 10583 10583 10582
10340 10343 10348 10352 10355 10365 10373 10372 10365 10360 10370 10397 10416 10416 10415 10421 10423 10423 10428 10437 10441 10441 10440 10441 10445 10449 10448 10449 10456 10468 10482 10493 10494 10491 10492 10491 10489 10494 10505 10507 10500 10497 10501 10502 10501 10505 10510 10513 10518 10524 10530 10533 10535 10538 10544 10550 10557 10561 10562 10560 10556 10553 10553 10556 10561 10565 10566 10568 10569 10569 10569 10571 10574 10574 10574 10573 10574 10574 10574 10573 10574 10572 10570 10570 10570 10569
10332 10336 10339 10342 10346 10353 10361 10363 10357 10358 10375 10395 10403 10406 10413 10417 10415 10413 10415 10422 10425 10421 10419 10419 10421 10429 10435 10437 10443 10449 10455 10464 10469 10471 10479 10485 10480 10473 10478 10490 10494 10492 10489 10489 10494 10501 10504 10502 10504 10508 10511 10513 10515 10517 10521 10528 10535 10541 10544 10544 10542 10540 10538 10539 10543 10548 10551 10553 10553 10553 10553 10556 10559 10560 10560 10559 10559 10560 10558 10556 10557 10558 10556 10556 10555 10554
10324 10328 10331 10333 10338 10345 10351 10353 10351 10353 10369 10386 10396 10404 10406 10401 10398 10395 10391 10395 10402 10401 10401 10404 10408 10414 10420 10422 10425 10428 10430 10433 10440 10456 10473 10471 10458 10453 10461 10475 10483 10482 10479 10484 10490 10494 10495 10495 10496 10498 10500 10500 10500 10501 10505 10510 10513 10517 10520 10520 10519 10519 10520 10520 10522 10527 10532 10537 10537 10536 10537 10539 10541 10543 10544 10543 10544 10544 10542 10540 10541 10541 10540 10541 10541 10539
10313 10318 10323 10324 10328 10335 10338 10340 10341 10345 10365 10387 10392 10388 10383 10377 10377 10374 10365 10369 10387 10394 10393 10394 10395 10396 10399 10401 10404 10407 10406 10404 10415 10442 10459 10446 10435 10446 10457 10460 10466 10469 10470 10476 10483 10484 10483 10485 10487 10489 10489 10488 10486 10487 10492 10497 10500 10502 10504 10502 10500 10500 10501 10503 10504 10506 10510 10515 10518 10519 10520 10522 10524 10525 10526 10526 10527 10526 10524 10524 10525 10526 10525 10526 10527 10527
10305 10310 10314 10314 10317 10323 10325 10327 10330 10337 10357 10375 10370 10360 10360 10360 10360 10352 10340 10351 10379 10390 10381 10374 10373 10374 10377 10379 10383 10386 10385 10385 10399 10423 10434 10425 10426 10442 10448 10447 10452 10456 10456 10461 10468 10471 10472 10472 10473 10474 10474 10473 10473 10474 10477 10482 10486 10490 10490 10488 10486 10486 10487 10488 10490 10490 10492 10495 10498 10500 10502 10503 10506 10509 10510 10510 10511 10511 10509 10508 10509 10511 10511 10511 10512 10514
10298 10300 10301 10301 10305 10309 10309 10312 10319 10327 10344 10354 10346 10340 10344 10345 10341 10331 10326 10346 10373 10373 10361 10357 10355 10355 10358 10360 10365 10371 10371 10374 10387 10401 10408 10410 10417 10427 10431 10434 10441 10443 10443 10445 10449 10453 10457 10459 10459 10458 10457 10457 10459 10461 10464 10467 10470 10473 10474 10474 10473 10472 10472 10474 10475 10477 10479 10480 10481 10482 10484 10485 10488 10492 10494 10495 10497 10497 10497 10496 10496 10496 10497 10497 10498 10500
10288 10288 10287 10289 10294 10295 10295 10300 10307 10316 10330 10336 10328 10326 10331 10328 10321 10317 10323 10340 10348 10341 10342 10347 10340 10336 10343 10349 10355 10360 10359 10361 10371 10380 10387 10392 10398 10405 10412 10418 10424 10428 10430 10431 10432 10436 10441 10443 10443 10443 10442 10442 10444 10447 10450 10452 10454 10454 10456 10457 10458 10457 10457 10458 10459 10462 10464 10466 10468 10468 10468 10469 10471 10473 10476 10478 10480 10483 10484 10483 10482 10482 10484 10485 10485 10487
10278 10277 10275 10278 10282 10283 10283 10286 10291 10305 10322 10323 10310 10309 10314 10307 10300 10305 10312 10316 10317 10321 10332 10335 10326 10325 10334 10340 10343 10345 10346 10350 10356 10361 10366 10370 10375 10384 10391 10398 10405 10412 10415 10416 10417 10421 10425 10427 10427 10427 10427 10427 10428 10431 10434 10437 10438 10438 10438 10439 10440 10440 10441 10442 10443 10446 10448 10451 10454 10455 10455 10454 10453 10454 10457 10460 10462 10465 10467 10467 10467 10467 10468 10469 10471 10473
10265 10264 10266 10272 10274 10274 10272 10272 10280 10299 10312 10302 10289 10293 10299 10291 10288 10295 10298 10298 10304 10313 10317 10317 10317 10319 10323 10326 10329 10330 10332 10336 10340 10342 10346 10349 10355 10363 10371 10378 10386 10393 10398 10401 10402 10405 10411 10414 10414 10413 10412 10411 10412 10415 10419 10422 10423 10423 10423 10423 10424 10425 10427 10428 10428 10429 10432 10434 10436 10439 10440 10440 10439 10438 10438 10440 10442 10445 10448 10449 10450 10451 10452 10453 10454 10456
10254 10257 10262 10265 10263 10259 10258 10262 10274 10289 10293 10285 10282 10287 10288 10283 10282 10284 10282 10283 10290 10295 10297 10300 10304 10306 10308 10311 10313 10315 10317 10320 10322 10325 10329 10331 10336 10344 10351 10359 10366 10373 10380 10384 10386 10390 10395 10400 10402 10401 10399 10398 10397 10399 10403 10407 10409 10410 10409 10408 10409 10411 10412 10413 10413 10414 10416 10417 10418 10419 10421 10422 10424 10424 10424 10423 10423 10425 10427 10429 10430 10433 10435 10436 10437 10439
10250 10252 10251 10250 10249 10248 10250 10258 10269 10276 10276 10276 10278 10276 10269 10267 10270 10268 10265 10266 10271 10276 10281 10285 10288 10291 10294 10295 10297 10300 10304 10306 10307 10309 10312 10316 10320 10325 10331 10340 10348 10355 10361 10366 10369 10372 10377 10383 10387 10387 10385 10384 10382 10382 10385 10389 10392 10394 10394 10392 10393 10395 10396 10397 10398 10399 10400 10401 10401 10402 10402 10403 10405 10407 10409 10409 10409 10409 10409 10410 10411 10413 10415 10417 10419 10421
10244 10244 10240 10239 10241 10243 10247 10254 10260 10262 10261 10261 10262 10259 10253 10252 10255 10254 10252 10252 10255 10260 10265 10269 10273 10277 10277 10278 10282 10286 10289 10292 10295 10297 10298 10301 10305 10308 10313 10321 10329 10336 10344 10349 10352 10355 10359 10365 10369 10369 10370 10369 10365 10365 10368 10370 10372 10375 10377 10375 10375 10376 10378 10380 10381 10382 10383 10384 10385 10385 10386 10387 10388 10388 10390 10392 10393 10394 10394 10393 10393 10395 10396 10397 10398 10401
10235 10234 10231 10231 10232 10234 10241 10248 10248 10247 10246 10246 10246 10244 10239 10237 10239 10240 10240 10240 10242 10246 10251 10256 10260 10261 10261 10266 10272 10274 10276 10281 10285 10286 10287 10289 10290 10293 10298 10305 10312 10319 10326 10330 10333 10336 10340 10344 10348 10349 10352 10352 10349 10348 10350 10351 10351 10354 10357 10358 10357 10357 10360 10362 10363 10364 10365 10366 10368 10369 10369 10371 10372 10372 10372 10372 10373 10376 10378 10377 10377 10378 10378 10378 10378 10380
10227 10224 10224 10227 10226 10226 10232 10237 10236 10233 10231 10229 10229 10227 10223 10222 10224 10226 10227 10228 10230 10233 10238 10243 10247 10248 10250 10254 10259 10263 10265 10267 10270 10274 10277 10277 10278 10280 10283 10288 10295 10300 10304 10308 10312 10316 10320 10324 10327 10329 10332 10333 10331 10331 10332 10333 10333 10333 10337 10340 10340 10339 10341 10343 10344 10346 10347 10347 10350 10352 10352 10354 10355 10355 10355 10355 10355 10355 10357 10359 10360 10361 10362 10361 10360 10362
10219 10217 10218 10220 10219 10218 10220 10223 10222 10220 10217 10213 10212 10210 10209 10209 10211 10212 10214 10216 10218 10223 10228 10233 10237 10240 10241 10243 10247 10252 10254 10253 10255 10259 10263 10264 10265 10265 10266 10270 10275 10280 10283 10287 10291 10296 10301 10305 10308 10310 10311 10312 10312 10313 10315 10315 10315 10315 10318 10321 10321 10321 10322 10323 10325 10327 10328 10329 10331 10333 10334 10336 10337 10337 10338 10338 10338 10338 10338 10339 10342 10344 10345 10344 10344 10346
10210 10210 10210 10207 10205 10206 10208 10208 10206 10206 10204 10200 10198 10197 10198 10199 10199 10200 10203 10205 10207 10213 10219 10223 10227 10230 10232 10233 10235 10238 10240 10240 10241 10243 10247 10249 10249 10249 10251 10254 10257 10261 10264 10267 10271 10275 10280 10285 10288 10291 10292 10292 10292 10294 10296 10297 10297 10298 10300 10302 10302 10302 10303 10304 10306 10308 10309 10310 10312 10314 10316 10318 10320 10320 10321 10322 10322 10322 10321 10321 10322 10325 10328 10329 10329 10329
10198 10197 10197 10195 10193 10192 10194 10194 10194 10193 10191 10187 10185 10187 10188 10188 10188 10190 10192 10193 10195 10200 10206 10211 10215 10218 10219 10221 10222 10224 10226 10228 10227 10227 10231 10233 10232 10233 10236 10238 10242 10245 10248 10250 10253 10257 10260 10264 10269 10272 10273 10273 10273 10274 10276 10278 10278 10279 10280 10282 10283 10283 10284 10286 10288 10289 10290 10291 10293 10295 10298 10300 10302 10304 10305 10305 10306 10306 10306 10305 10305 10305 10308 10312 10314 10314